Showing default

COSMOS 2214, 22185

Orbit data source: Space-Track

COSMOS 2214, 22185 is a payload satellite owned by VKS (CIS) in LEO that was launched on Tue, 20 Oct 1992 UTC via a TSIKLON-3 launch vehicle from the Plesetsk Missile And Space Complex (PKMTR). Payload-class satellites include a variety of spacecraft equipped with specific instruments for various scientific and technological missions. These include communications satellites like Starlink; space stations such as the ISS; scientific satellites like the Hubble; Earth observation satellites from companies like Planet Labs, Umbra, and HawkEye 360; GPS; miniature CubeSats for education and research; and military/defense satellites.

Loading next visibility...
Identifier
22185, 1992-068D
Orbit
LEO
Country
Flag of CISCIS
Related business
Manufacturer
NPO PM
Mission
Defense Communications
Bus & Motor
STRELA-3, Unknown motor
Mass
225 kg wet, 225 kg dry
Launch date (UTC)
1992-10-20 (33 years ago)
Launch vehicle
TSIKLON-3
Launch site
Plesetsk Missile And Space Complex (PKMTR)
Object type
Payload
Rocket body
Debris
Shape & HBR
Cyl, 0.8 m
Radar Cross Section
1.257 m², Large (>1 m²)

Expand to show TLE details & history
Last TLE update: 4 hours ago

TLE from 4 hours ago
0 COSMOS 2214
1 22185U 92068D   25300.95822843  .00000035  00000-0  14025-3 0  9997
2 22185  82.5895 141.5167 0008280 322.7706 161.8772 12.61596128520366
Epoch: 2025-10-27T22:59Z
TLE epoch observation values (Epoch: 2025-10-27T22:59:50.936Z)
Latitude
54.72862°
Longitude
-70.54175°
Altitude
1,431.478 km
Speed
7.148 km/s
True Right ascension
20h 43m 53s
True Declination
54° 34' 49"
Sunlit
Object was in daylight at epoch
Visualization orbit readout
Latitude
Unknown
Longitude
Unknown
Altitude
Unknown
Speed
Unknown
Apparent Right ascension
Unknown
Apparent Declination
Unknown
Sunlit
N/A
Visualization observer readout
Local Sidereal Time
22:36:27
Azimuth
Unknown
Elevation
Unknown
Doppler factor
Unknown
Orbital elements
Apogee altitude
1,420.136 km
Perigee altitude
1,407.233 km
Semi-major axis
7,791.822 km
Eccentricity
0.00083
Inclination
82.5895°
RAAN
141.5167°
Arg. of periapsis
322.7706°
True anomaly
161.90668°
Mean anomaly
161.8772°
Eccentric anomaly
161.89195°
Mean motion
3.15562 °/min
Orbital period
114.08 mins
BSTAR
0.00014025
Loading maneuver chart data...
Computing Atmospheric mass density...
Loading historical data...
Loading historical data...
Loading historical data...
Loading historical data...
Loading historical data...
Loading historical data...
Loading historical data...

Documentation

Showing up to 5 results
|